User: anonymous   Login
Location: Narrabri
(30.3170°S, 149.7830°E)
Time: 20:08:33
(UTC+11:00)
Language:

VELOX 1 - Orbit

View from above orbital plane
View from above orbital plane
View from above satellite
View from above satellite

Ground track
Ground track

The orbit data is extracted from the following two-line orbital elements,

1 40057U 14034E   18290.21225756  .00000364  00000-0  58659-4 0  9998
2 40057  98.2143  43.4427 0009675 299.9443  60.0814 14.77508454231668
Epoch (UTC): 17 October 2018 05:05:39
Eccentricity: 0.0009675
inclination: 98.2143°
perigee height: 630 km
apogee height: 644 km
right ascension of ascending node: 43.4427°
argument of perigee: 299.9443°
revolutions per day: 14.77508454
mean anomaly at epoch: 60.0814°
orbit number at epoch: 23166

The dashed part of the orbit path shows where the satellite is in the earth's shadow,  

DLR